ECMWFFLT1_850_temp_258.txt.gz
Temp
-16 -16 -16 -16 -16 -16 -16 -16 -16 -16 -16 -16 -16 -16 -17 -17 -17 -17 -18 -18 -18 -19 -19 -20 -20 -20 -21 -22 -22 -22 -23 -24 -24 -25 -25 -26 -26 -26 -26 -26 -26 -27 -26 -26 -26 -26 -26 -26 -23 -23 -23 -23 -23 -23 -22 -22 -21 -21 -22 -21 -20 -19 -18
-16 -16 -16 -16 -16 -16 -16 -16 -17 -17 -17 -17 -17 -17 -17 -17 -17 -18 -18 -18 -19 -19 -20 -20 -20 -21 -21 -22 -22 -22 -23 -23 -24 -25 -25 -26 -26 -26 -27 -27 -27 -27 -27 -26 -26 -26 -26 -26 -25 -24 -24 -23 -23 -23 -23 -22 -22 -23 -23 -23 -21 -20 -19
-17 -17 -17 -17 -17 -17 -17 -17 -17 -17 -17 -17 -17 -17 -17 -17 -18 -18 -18 -18 -19 -19 -20 -20 -21 -21 -22 -22 -22 -22 -23 -23 -24 -25 -26 -26 -26 -27 -27 -27 -27 -27 -28 -27 -27 -27 -27 -26 -25 -24 -24 -24 -24 -24 -24 -24 -24 -24 -24 -23 -23 -22 -20
-17 -17 -17 -17 -17 -17 -17 -17 -17 -17 -18 -18 -18 -18 -18 -18 -18 -18 -19 -19 -19 -19 -20 -21 -21 -21 -21 -22 -22 -22 -23 -24 -25 -25 -26 -26 -26 -27 -27 -27 -28 -28 -28 -28 -28 -27 -27 -27 -26 -25 -24 -25 -24 -25 -25 -25 -25 -24 -24 -24 -24 -24 -22
-17 -17 -17 -17 -17 -17 -17 -18 -18 -18 -18 -18 -18 -18 -18 -18 -18 -18 -19 -19 -19 -20 -20 -20 -20 -21 -21 -22 -22 -22 -23 -24 -25 -25 -25 -26 -26 -26 -27 -27 -27 -27 -28 -28 -28 -28 -27 -27 -26 -25 -25 -25 -26 -25 -25 -25 -25 -25 -25 -25 -24 -24 -24
-17 -17 -17 -17 -17 -17 -18 -18 -18 -18 -18 -18 -18 -18 -18 -19 -19 -19 -19 -19 -19 -20 -20 -20 -20 -20 -20 -21 -22 -23 -23 -24 -25 -25 -25 -26 -26 -26 -26 -26 -26 -27 -27 -28 -28 -28 -27 -27 -26 -26 -26 -26 -26 -26 -26 -25 -25 -25 -25 -25 -25 -25 -25
-17 -17 -17 -17 -17 -17 -18 -18 -18 -18 -18 -19 -19 -19 -19 -19 -19 -19 -19 -19 -19 -19 -19 -19 -19 -20 -20 -21 -22 -23 -24 -24 -25 -25 -25 -26 -26 -26 -26 -26 -26 -26 -27 -28 -28 -28 -28 -27 -27 -27 -27 -26 -26 -26 -26 -26 -25 -25 -25 -25 -25 -25 -25
-17 -17 -17 -17 -17 -17 -18 -18 -18 -19 -19 -19 -19 -19 -19 -19 -20 -20 -19 -19 -18 -18 -18 -18 -19 -20 -21 -22 -23 -23 -24 -24 -25 -25 -26 -26 -26 -26 -27 -27 -27 -27 -27 -28 -28 -28 -28 -28 -28 -27 -27 -26 -26 -26 -26 -26 -26 -26 -25 -26 -25 -25 -26
-17 -17 -17 -17 -17 -17 -18 -18 -18 -19 -19 -19 -20 -20 -20 -19 -19 -19 -19 -18 -18 -18 -18 -19 -20 -20 -21 -22 -23 -23 -24 -24 -24 -25 -26 -26 -26 -27 -27 -27 -27 -27 -27 -28 -29 -28 -28 -28 -28 -28 -27 -27 -27 -27 -27 -27 -26 -26 -26 -26 -26 -26 -26
-17 -17 -17 -17 -17 -17 -17 -18 -18 -19 -19 -19 -20 -20 -20 -20 -19 -19 -19 -19 -19 -19 -19 -20 -20 -21 -21 -22 -22 -23 -23 -23 -24 -24 -25 -25 -26 -26 -27 -27 -27 -27 -27 -28 -28 -28 -28 -29 -28 -28 -28 -27 -27 -28 -27 -27 -27 -26 -26 -26 -26 -26 -26
-17 -17 -17 -17 -17 -17 -17 -17 -18 -19 -19 -19 -20 -21 -21 -21 -21 -21 -21 -21 -21 -21 -21 -20 -21 -21 -21 -22 -22 -22 -23 -23 -23 -24 -24 -25 -25 -26 -26 -27 -27 -27 -27 -28 -28 -28 -28 -29 -29 -28 -28 -28 -28 -28 -28 -28 -27 -27 -27 -27 -27 -27 -26
-17 -17 -17 -17 -17 -17 -17 -17 -18 -19 -19 -19 -20 -20 -21 -21 -21 -22 -22 -22 -22 -22 -22 -21 -21 -21 -21 -21 -22 -22 -22 -23 -23 -23 -24 -24 -25 -25 -25 -26 -27 -27 -28 -28 -28 -28 -28 -28 -28 -28 -28 -28 -28 -28 -28 -28 -28 -27 -27 -27 -27 -28 -27
-17 -17 -17 -17 -17 -17 -17 -17 -18 -19 -19 -19 -20 -20 -21 -21 -21 -21 -22 -22 -22 -22 -22 -21 -21 -21 -21 -21 -22 -22 -22 -22 -23 -23 -24 -24 -24 -24 -25 -25 -26 -26 -27 -28 -28 -28 -28 -27 -28 -28 -28 -27 -28 -28 -28 -28 -28 -27 -28 -28 -28 -28 -27
-17 -17 -17 -17 -17 -17 -16 -16 -17 -18 -19 -19 -20 -20 -21 -21 -21 -21 -21 -21 -21 -21 -21 -21 -21 -21 -21 -21 -21 -22 -22 -22 -23 -23 -24 -24 -24 -24 -24 -24 -25 -25 -26 -27 -27 -28 -28 -27 -27 -28 -27 -27 -28 -28 -28 -28 -28 -28 -28 -28 -28 -28 -27
-16 -16 -17 -17 -17 -17 -16 -16 -17 -18 -19 -19 -20 -20 -21 -21 -20 -20 -20 -20 -20 -21 -21 -21 -21 -21 -21 -21 -21 -21 -22 -23 -23 -24 -24 -24 -23 -23 -23 -24 -24 -25 -25 -26 -26 -27 -27 -27 -27 -27 -27 -27 -28 -28 -28 -28 -28 -28 -28 -28 -28 -28 -28
-17 -17 -16 -17 -17 -17 -16 -16 -17 -18 -18 -19 -20 -20 -21 -20 -20 -20 -20 -19 -20 -20 -20 -20 -21 -21 -21 -21 -20 -21 -21 -23 -24 -24 -24 -24 -24 -24 -23 -23 -24 -24 -25 -25 -26 -26 -27 -27 -27 -27 -27 -27 -27 -28 -28 -28 -28 -28 -28 -29 -29 -28 -28
-17 -17 -17 -17 -17 -17 -16 -16 -16 -18 -18 -19 -19 -20 -20 -20 -20 -20 -20 -19 -20 -20 -20 -20 -20 -20 -21 -21 -21 -21 -22 -23 -24 -25 -25 -24 -24 -24 -24 -23 -23 -24 -24 -25 -26 -26 -27 -27 -27 -27 -27 -27 -27 -27 -28 -28 -28 -27 -28 -28 -29 -28 -28
-17 -17 -17 -17 -17 -17 -17 -16 -16 -17 -18 -19 -19 -20 -20 -20 -20 -20 -20 -20 -20 -20 -20 -20 -20 -20 -21 -21 -21 -21 -22 -23 -24 -25 -25 -25 -25 -25 -25 -23 -23 -24 -24 -25 -25 -25 -26 -26 -26 -26 -26 -26 -26 -27 -27 -28 -28 -28 -28 -28 -28 -29 -29
-17 -17 -17 -17 -17 -17 -17 -17 -17 -17 -18 -19 -19 -20 -20 -20 -20 -20 -20 -20 -20 -20 -20 -20 -20 -20 -20 -21 -21 -21 -22 -23 -24 -25 -25 -26 -27 -27 -26 -25 -25 -25 -25 -25 -25 -25 -25 -25 -25 -26 -26 -26 -26 -26 -27 -27 -28 -28 -29 -29 -28 -29 -29
-18 -17 -17 -17 -17 -17 -17 -17 -17 -17 -18 -19 -19 -19 -20 -20 -20 -20 -21 -21 -21 -21 -20 -20 -20 -20 -20 -21 -21 -22 -22 -23 -24 -25 -26 -26 -27 -27 -26 -27 -28 -28 -27 -27 -27 -26 -26 -26 -26 -26 -26 -26 -26 -26 -26 -27 -28 -28 -29 -29 -29 -29 -29
-18 -17 -16 -16 -17 -17 -17 -17 -18 -18 -18 -19 -19 -19 -20 -20 -20 -21 -21 -22 -21 -21 -21 -21 -21 -21 -21 -21 -22 -22 -23 -23 -24 -25 -26 -27 -28 -28 -28 -29 -30 -30 -29 -28 -28 -27 -27 -27 -27 -26 -27 -27 -26 -26 -26 -27 -28 -28 -29 -29 -29 -29 -29
-18 -18 -17 -16 -16 -16 -16 -17 -17 -18 -18 -18 -19 -19 -19 -20 -20 -21 -22 -22 -22 -22 -22 -22 -22 -21 -21 -22 -22 -23 -23 -23 -24 -25 -26 -27 -27 -28 -29 -30 -30 -30 -30 -29 -28 -28 -28 -28 -27 -27 -27 -27 -27 -27 -27 -27 -28 -28 -28 -29 -29 -29 -29
-18 -18 -17 -16 -16 -16 -16 -17 -17 -17 -17 -18 -18 -19 -19 -19 -20 -20 -22 -22 -23 -23 -23 -23 -23 -23 -23 -23 -23 -23 -24 -25 -25 -25 -25 -26 -26 -27 -28 -29 -30 -30 -30 -30 -29 -29 -28 -28 -28 -27 -27 -28 -27 -28 -28 -28 -28 -28 -28 -29 -29 -29 -29
-18 -18 -17 -17 -16 -16 -16 -16 -17 -17 -17 -18 -18 -19 -19 -19 -20 -20 -21 -22 -23 -23 -23 -23 -24 -24 -25 -25 -25 -25 -25 -25 -26 -25 -25 -26 -26 -27 -29 -30 -31 -31 -31 -31 -31 -30 -29 -28 -28 -28 -28 -28 -28 -28 -28 -28 -28 -29 -29 -29 -29 -29 -29
-18 -18 -17 -17 -17 -16 -16 -16 -17 -17 -17 -18 -19 -19 -19 -19 -20 -20 -21 -22 -23 -23 -24 -24 -25 -25 -25 -26 -26 -26 -26 -26 -26 -26 -26 -26 -27 -28 -29 -30 -30 -31 -32 -32 -32 -31 -30 -29 -29 -29 -29 -28 -28 -28 -28 -28 -29 -29 -29 -29 -29 -29 -29
-18 -18 -17 -17 -17 -17 -17 -17 -17 -17 -18 -18 -19 -20 -20 -20 -20 -21 -21 -22 -23 -23 -24 -24 -24 -24 -25 -25 -26 -26 -26 -26 -26 -27 -27 -27 -28 -29 -30 -30 -31 -32 -32 -33 -33 -32 -32 -30 -29 -29 -30 -29 -29 -29 -29 -29 -29 -29 -29 -29 -29 -29 -29
-18 -18 -18 -18 -18 -18 -17 -17 -17 -18 -18 -19 -20 -21 -22 -22 -22 -23 -24 -24 -24 -25 -25 -26 -26 -26 -26 -27 -27 -27 -28 -28 -28 -28 -28 -28 -29 -30 -31 -32 -33 -33 -33 -33 -33 -33 -33 -32 -30 -30 -31 -31 -30 -30 -30 -29 -29 -29 -29 -30 -30 -30 -30
-18 -18 -18 -18 -18 -18 -18 -18 -18 -19 -20 -21 -22 -22 -23 -23 -24 -25 -26 -26 -27 -28 -29 -29 -29 -29 -30 -30 -30 -31 -31 -31 -31 -31 -31 -31 -31 -32 -32 -33 -33 -33 -34 -34 -34 -34 -33 -32 -31 -31 -31 -31 -31 -31 -30 -30 -30 -29 -29 -30 -30 -30 -30
-18 -18 -19 -19 -18 -19 -19 -19 -19 -20 -21 -22 -22 -23 -24 -25 -26 -27 -28 -28 -29 -30 -30 -30 -30 -30 -31 -32 -32 -32 -33 -33 -33 -33 -33 -33 -33 -33 -33 -33 -34 -34 -34 -34 -34 -34 -34 -34 -33 -32 -31 -32 -32 -31 -31 -31 -30 -30 -30 -30 -31 -31 -30
-18 -18 -18 -19 -19 -19 -20 -20 -20 -21 -21 -22 -23 -24 -25 -25 -26 -27 -28 -28 -29 -30 -30 -30 -31 -31 -31 -32 -33 -33 -33 -33 -33 -34 -34 -34 -34 -34 -34 -34 -34 -34 -34 -34 -34 -34 -34 -34 -34 -33 -32 -32 -32 -32 -31 -31 -31 -31 -30 -30 -31 -31 -31
-17 -18 -18 -19 -19 -19 -19 -20 -21 -22 -22 -23 -24 -25 -25 -26 -26 -27 -27 -28 -29 -30 -31 -31 -32 -32 -32 -33 -33 -33 -33 -34 -34 -34 -34 -34 -34 -34 -34 -34 -34 -34 -34 -34 -34 -35 -35 -35 -34 -34 -33 -33 -33 -33 -32 -32 -32 -31 -31 -31 -31 -31 -31
-17 -18 -18 -19 -19 -19 -20 -20 -21 -22 -23 -23 -24 -25 -25 -25 -25 -26 -26 -28 -29 -30 -30 -31 -32 -32 -33 -33 -33 -33 -34 -34 -34 -34 -34 -34 -34 -34 -34 -34 -34 -34 -34 -35 -35 -35 -35 -35 -35 -35 -34 -34 -34 -34 -33 -33 -32 -32 -32 -31 -31 -31 -31
-17 -18 -18 -18 -19 -20 -21 -21 -21 -22 -22 -23 -24 -24 -25 -25 -24 -24 -25 -27 -29 -30 -30 -31 -32 -32 -33 -33 -33 -33 -34 -34 -34 -34 -34 -34 -34 -34 -34 -34 -34 -34 -35 -35 -35 -35 -35 -35 -35 -35 -35 -35 -34 -34 -34 -34 -33 -33 -33 -33 -32 -31 -31
-16 -17 -18 -19 -20 -21 -21 -22 -22 -22 -22 -22 -23 -24 -24 -24 -24 -24 -25 -26 -28 -29 -30 -31 -32 -32 -33 -33 -33 -33 -34 -34 -34 -34 -34 -34 -34 -34 -34 -34 -34 -35 -35 -35 -35 -35 -35 -35 -35 -35 -35 -35 -35 -35 -35 -34 -34 -34 -34 -33 -33 -32 -32
-17 -17 -18 -19 -20 -20 -21 -21 -21 -21 -21 -22 -23 -24 -24 -25 -24 -25 -25 -26 -28 -29 -30 -31 -32 -32 -32 -33 -33 -33 -33 -34 -34 -34 -34 -34 -34 -34 -34 -34 -35 -35 -35 -35 -35 -35 -35 -35 -35 -35 -35 -35 -35 -35 -35 -35 -35 -35 -34 -34 -33 -33 -32
-18 -18 -18 -19 -19 -20 -19 -20 -20 -20 -21 -21 -22 -23 -24 -24 -25 -26 -26 -27 -28 -29 -30 -31 -31 -32 -32 -32 -33 -33 -33 -33 -34 -34 -34 -34 -34 -34 -35 -35 -35 -35 -35 -35 -35 -35 -35 -35 -35 -35 -35 -35 -35 -35 -35 -35 -35 -35 -35 -34 -34 -33 -33

ECMWFFLT1_850_temp_264.txt.gz
Temp
-13 -14 -14 -14 -14 -14 -14 -15 -15 -15 -15 -15 -15 -15 -15 -15 -15 -14 -14 -14 -14 -15 -15 -15 -15 -15 -15 -16 -16 -16 -16 -16 -16 -17 -17 -18 -18 -18 -19 -20 -21 -22 -21 -19 -20 -20 -19 -19 -19 -19 -19 -18 -18 -19 -19 -19 -19 -19 -19 -19 -19 -19 -19
-14 -14 -14 -14 -14 -14 -15 -15 -15 -15 -16 -16 -15 -15 -15 -15 -15 -14 -14 -14 -14 -14 -15 -15 -15 -15 -15 -16 -16 -15 -16 -16 -16 -17 -17 -18 -18 -18 -19 -19 -20 -22 -22 -20 -20 -20 -20 -20 -20 -20 -19 -19 -19 -19 -19 -20 -20 -20 -20 -20 -20 -20 -19
-14 -14 -14 -14 -14 -15 -15 -15 -15 -16 -16 -16 -16 -16 -15 -15 -15 -15 -14 -14 -14 -14 -15 -15 -15 -15 -15 -16 -16 -15 -16 -16 -16 -17 -18 -18 -18 -18 -19 -19 -21 -22 -22 -22 -21 -21 -21 -21 -21 -20 -19 -19 -19 -20 -20 -20 -21 -21 -21 -21 -21 -21 -20
-14 -14 -14 -14 -14 -15 -15 -15 -15 -16 -16 -16 -16 -16 -16 -15 -15 -15 -15 -14 -14 -15 -15 -15 -15 -15 -15 -15 -16 -15 -15 -16 -17 -17 -18 -18 -18 -18 -19 -19 -21 -22 -23 -23 -22 -21 -22 -22 -21 -21 -20 -19 -20 -20 -21 -21 -22 -22 -22 -22 -22 -22 -21
-14 -14 -14 -14 -14 -15 -15 -15 -15 -15 -16 -16 -16 -16 -16 -16 -16 -15 -15 -15 -15 -15 -15 -15 -15 -15 -15 -15 -15 -16 -16 -16 -17 -17 -18 -18 -18 -18 -19 -20 -21 -22 -23 -24 -23 -22 -22 -23 -22 -22 -21 -20 -21 -21 -21 -22 -22 -23 -23 -23 -23 -23 -22
-14 -14 -14 -14 -14 -15 -15 -15 -15 -15 -16 -16 -16 -16 -16 -16 -16 -15 -15 -15 -15 -15 -15 -15 -15 -15 -15 -16 -16 -16 -16 -16 -17 -17 -17 -18 -18 -18 -19 -20 -21 -22 -23 -23 -23 -23 -23 -23 -23 -23 -21 -21 -22 -22 -22 -22 -23 -23 -23 -23 -23 -23 -22
-14 -14 -14 -14 -15 -15 -15 -15 -15 -15 -16 -16 -17 -17 -16 -16 -16 -15 -15 -15 -15 -15 -15 -15 -15 -15 -15 -16 -16 -16 -16 -16 -17 -17 -18 -18 -18 -19 -20 -21 -21 -22 -23 -23 -23 -24 -24 -23 -24 -24 -22 -21 -23 -23 -23 -24 -24 -24 -24 -24 -24 -24 -23
-14 -14 -14 -14 -15 -15 -15 -15 -15 -15 -16 -16 -17 -17 -17 -16 -16 -16 -15 -15 -15 -15 -15 -15 -15 -15 -15 -15 -16 -16 -16 -16 -17 -18 -18 -18 -19 -20 -21 -22 -22 -23 -23 -24 -24 -25 -24 -24 -25 -24 -23 -23 -24 -24 -24 -24 -25 -25 -24 -24 -24 -24 -24
-14 -14 -14 -14 -15 -15 -15 -15 -15 -15 -16 -17 -17 -17 -17 -17 -16 -16 -15 -15 -15 -14 -14 -14 -15 -15 -15 -15 -15 -16 -16 -16 -17 -18 -18 -18 -19 -21 -22 -22 -23 -24 -24 -24 -25 -25 -25 -25 -25 -24 -24 -24 -24 -24 -24 -25 -26 -26 -25 -25 -25 -24 -24
-14 -14 -14 -15 -15 -15 -15 -15 -15 -16 -16 -17 -17 -17 -17 -17 -16 -15 -15 -14 -14 -14 -14 -14 -15 -15 -15 -15 -15 -16 -16 -17 -17 -18 -19 -19 -20 -21 -22 -23 -24 -24 -24 -25 -25 -25 -25 -26 -25 -24 -25 -25 -24 -25 -25 -26 -26 -26 -26 -26 -26 -25 -25
-14 -14 -15 -15 -15 -15 -15 -15 -15 -16 -16 -17 -17 -17 -18 -17 -16 -16 -15 -15 -15 -14 -15 -15 -15 -15 -15 -16 -16 -16 -17 -17 -18 -19 -20 -20 -21 -21 -22 -23 -24 -24 -25 -25 -26 -26 -26 -26 -25 -24 -25 -26 -25 -25 -26 -26 -26 -27 -26 -26 -27 -26 -25
-14 -15 -15 -15 -15 -15 -15 -15 -15 -16 -16 -16 -17 -17 -18 -18 -17 -17 -16 -16 -15 -15 -15 -15 -16 -16 -17 -17 -17 -17 -18 -18 -19 -19 -20 -20 -21 -21 -22 -23 -23 -24 -25 -26 -26 -26 -26 -27 -26 -25 -26 -26 -26 -26 -26 -27 -27 -27 -27 -26 -27 -27 -26
-14 -15 -15 -15 -15 -15 -15 -15 -15 -16 -16 -16 -17 -17 -17 -17 -17 -16 -16 -16 -16 -16 -16 -16 -17 -17 -17 -18 -18 -18 -18 -18 -19 -19 -20 -20 -21 -21 -22 -22 -22 -23 -24 -25 -26 -26 -26 -26 -27 -26 -26 -26 -27 -27 -27 -27 -27 -26 -27 -27 -27 -27 -27
-15 -15 -15 -15 -15 -15 -14 -14 -15 -16 -16 -16 -16 -17 -17 -17 -16 -16 -16 -16 -16 -16 -16 -17 -17 -17 -17 -17 -17 -18 -18 -18 -19 -19 -20 -20 -21 -22 -22 -22 -22 -23 -23 -24 -25 -26 -25 -25 -26 -27 -26 -27 -27 -27 -27 -27 -27 -27 -27 -27 -27 -27 -27
-15 -15 -15 -15 -15 -15 -14 -14 -15 -16 -16 -16 -16 -17 -17 -16 -16 -16 -16 -16 -16 -16 -16 -17 -17 -17 -17 -17 -17 -18 -18 -19 -19 -20 -20 -20 -21 -22 -23 -23 -23 -24 -24 -25 -25 -26 -26 -26 -26 -27 -27 -27 -27 -27 -27 -27 -27 -27 -27 -27 -27 -28 -28
-15 -15 -15 -15 -15 -15 -14 -14 -15 -16 -16 -16 -16 -17 -17 -16 -16 -16 -16 -16 -16 -16 -16 -16 -16 -17 -17 -17 -17 -18 -18 -19 -20 -21 -21 -21 -22 -23 -24 -24 -25 -25 -26 -26 -27 -27 -27 -27 -27 -27 -27 -27 -27 -27 -27 -27 -27 -28 -28 -28 -28 -28 -28
-15 -15 -15 -15 -15 -15 -14 -14 -14 -15 -16 -16 -16 -17 -17 -17 -16 -16 -16 -16 -16 -16 -16 -16 -16 -17 -17 -17 -18 -18 -19 -20 -21 -22 -22 -23 -24 -24 -25 -25 -25 -26 -26 -27 -27 -28 -28 -28 -28 -27 -27 -26 -26 -26 -27 -27 -28 -28 -28 -28 -28 -28 -28
-15 -15 -15 -15 -15 -15 -15 -14 -14 -15 -16 -16 -16 -17 -17 -17 -17 -17 -16 -16 -16 -16 -16 -16 -17 -17 -18 -18 -18 -19 -20 -21 -22 -24 -24 -25 -25 -26 -25 -25 -26 -27 -27 -27 -28 -28 -28 -29 -29 -29 -29 -28 -28 -28 -27 -27 -27 -27 -28 -28 -28 -29 -29
-15 -15 -15 -15 -15 -15 -15 -14 -14 -15 -16 -16 -16 -17 -17 -17 -17 -17 -17 -17 -16 -16 -16 -16 -17 -17 -18 -19 -19 -19 -20 -21 -22 -23 -24 -25 -26 -26 -25 -25 -26 -27 -28 -28 -28 -28 -28 -28 -29 -29 -30 -30 -30 -30 -29 -29 -28 -28 -28 -29 -29 -29 -29
-16 -15 -15 -15 -15 -15 -15 -15 -15 -15 -16 -16 -16 -16 -17 -17 -17 -17 -17 -17 -17 -16 -16 -17 -17 -18 -18 -19 -19 -19 -19 -20 -21 -23 -25 -26 -27 -26 -25 -25 -27 -27 -27 -27 -26 -26 -27 -27 -27 -29 -29 -29 -30 -30 -30 -30 -30 -29 -29 -29 -30 -30 -30
-16 -16 -15 -15 -15 -15 -15 -15 -15 -15 -15 -15 -15 -16 -16 -17 -17 -17 -17 -17 -17 -17 -17 -17 -18 -18 -19 -19 -19 -19 -20 -20 -22 -24 -25 -25 -25 -25 -25 -25 -26 -26 -26 -25 -25 -25 -25 -26 -27 -29 -29 -30 -30 -30 -30 -30 -30 -30 -30 -30 -30 -30 -30
-16 -16 -15 -14 -15 -15 -15 -15 -15 -15 -15 -15 -15 -16 -16 -16 -17 -17 -17 -17 -17 -17 -18 -18 -18 -18 -19 -19 -20 -20 -20 -20 -21 -22 -22 -22 -23 -23 -24 -25 -25 -25 -25 -24 -25 -25 -25 -26 -27 -29 -30 -30 -31 -31 -31 -31 -31 -30 -30 -30 -30 -30 -30
-16 -16 -15 -14 -14 -14 -15 -15 -15 -15 -15 -15 -15 -16 -16 -16 -17 -17 -18 -18 -18 -18 -18 -18 -19 -19 -19 -20 -20 -19 -19 -20 -20 -21 -21 -22 -23 -23 -24 -25 -25 -25 -25 -25 -25 -26 -26 -27 -28 -29 -30 -31 -31 -31 -31 -31 -31 -31 -31 -31 -31 -31 -31
-16 -16 -16 -15 -14 -14 -15 -15 -15 -16 -16 -16 -16 -16 -17 -17 -17 -18 -18 -18 -18 -19 -19 -19 -19 -19 -19 -19 -19 -19 -19 -20 -20 -21 -22 -22 -23 -23 -24 -25 -25 -26 -27 -27 -27 -27 -28 -28 -29 -30 -30 -31 -31 -32 -32 -32 -32 -31 -31 -31 -31 -31 -31
-16 -16 -16 -15 -15 -15 -15 -15 -16 -16 -16 -16 -17 -17 -17 -17 -18 -18 -19 -19 -19 -19 -19 -19 -19 -19 -19 -18 -19 -19 -20 -20 -20 -21 -21 -22 -22 -23 -24 -25 -26 -27 -28 -28 -27 -28 -29 -29 -30 -30 -31 -31 -32 -32 -32 -32 -32 -32 -32 -32 -32 -32 -32
-17 -16 -16 -15 -15 -15 -15 -15 -16 -16 -16 -17 -17 -17 -18 -18 -18 -19 -19 -19 -19 -19 -19 -19 -18 -18 -18 -18 -18 -19 -20 -20 -20 -20 -21 -21 -22 -24 -25 -26 -26 -27 -27 -28 -28 -28 -29 -29 -30 -31 -31 -31 -32 -32 -32 -32 -32 -32 -32 -33 -33 -33 -33
-17 -16 -16 -16 -16 -16 -16 -15 -15 -16 -16 -17 -17 -18 -18 -19 -19 -19 -19 -18 -18 -18 -18 -18 -17 -17 -18 -18 -19 -19 -19 -20 -20 -20 -20 -21 -22 -24 -25 -26 -27 -27 -28 -28 -28 -29 -29 -30 -30 -31 -31 -31 -32 -32 -32 -32 -33 -33 -33 -33 -33 -33 -33
-17 -16 -16 -17 -16 -16 -16 -15 -15 -16 -17 -18 -18 -18 -18 -18 -18 -18 -18 -18 -18 -18 -18 -17 -17 -17 -17 -18 -18 -18 -19 -19 -19 -20 -20 -21 -22 -24 -25 -26 -27 -27 -27 -28 -28 -29 -29 -30 -30 -31 -31 -32 -32 -32 -32 -33 -33 -33 -33 -33 -34 -34 -34
-16 -16 -17 -17 -16 -16 -17 -16 -16 -17 -18 -18 -18 -19 -19 -18 -18 -18 -18 -19 -19 -19 -18 -17 -17 -17 -18 -18 -18 -18 -18 -19 -19 -20 -20 -21 -23 -24 -25 -25 -26 -27 -27 -28 -29 -29 -29 -30 -30 -31 -31 -32 -32 -32 -33 -33 -33 -33 -33 -34 -34 -34 -34
-16 -16 -17 -17 -16 -16 -17 -17 -17 -17 -18 -18 -18 -18 -18 -18 -19 -19 -19 -20 -20 -20 -19 -18 -18 -18 -18 -19 -19 -19 -19 -19 -20 -20 -21 -22 -23 -23 -24 -25 -26 -26 -27 -28 -29 -29 -29 -30 -30 -31 -31 -32 -32 -32 -33 -33 -33 -33 -34 -34 -34 -34 -34
-16 -16 -16 -17 -17 -16 -17 -17 -17 -17 -17 -17 -17 -18 -18 -19 -19 -20 -20 -20 -20 -20 -19 -19 -19 -18 -18 -19 -19 -19 -19 -20 -20 -21 -21 -22 -22 -23 -24 -25 -25 -26 -27 -28 -28 -29 -29 -30 -30 -31 -31 -32 -32 -32 -33 -33 -33 -34 -34 -34 -34 -34 -34
-15 -16 -16 -17 -17 -17 -17 -17 -17 -18 -17 -17 -18 -18 -19 -19 -20 -20 -20 -20 -21 -20 -19 -19 -19 -18 -18 -19 -19 -19 -19 -20 -21 -21 -22 -23 -22 -22 -23 -24 -25 -26 -27 -28 -28 -29 -29 -30 -30 -31 -31 -32 -32 -33 -33 -33 -33 -34 -34 -34 -34 -34 -34
-15 -16 -16 -16 -17 -17 -17 -17 -17 -17 -18 -18 -19 -19 -19 -19 -19 -19 -20 -20 -21 -20 -19 -19 -19 -18 -18 -19 -19 -19 -20 -20 -21 -21 -22 -23 -23 -23 -23 -24 -25 -26 -27 -27 -28 -29 -29 -29 -30 -31 -31 -32 -32 -33 -33 -33 -33 -34 -34 -34 -34 -34 -35
-15 -16 -16 -16 -16 -17 -17 -17 -17 -18 -18 -19 -19 -19 -20 -19 -19 -18 -19 -20 -20 -19 -18 -18 -19 -18 -18 -19 -19 -19 -20 -20 -21 -22 -22 -22 -23 -23 -23 -24 -26 -27 -27 -27 -28 -29 -29 -29 -30 -30 -31 -32 -32 -33 -33 -33 -33 -34 -34 -34 -34 -34 -35
-15 -15 -16 -16 -16 -17 -17 -17 -18 -18 -18 -19 -19 -19 -20 -19 -18 -18 -18 -19 -19 -19 -18 -18 -18 -18 -18 -19 -19 -20 -20 -21 -21 -21 -22 -23 -23 -23 -24 -25 -26 -26 -27 -28 -28 -28 -29 -29 -30 -30 -31 -32 -32 -33 -33 -33 -33 -34 -34 -34 -34 -34 -35
-15 -15 -15 -16 -16 -17 -18 -18 -18 -18 -18 -18 -19 -20 -20 -20 -19 -18 -18 -18 -18 -18 -18 -18 -18 -18 -19 -19 -19 -20 -20 -21 -21 -21 -22 -23 -23 -24 -24 -25 -26 -26 -27 -28 -28 -28 -29 -30 -30 -31 -31 -32 -32 -33 -33 -33 -33 -34 -34 -34 -34 -35 -35

ECMWFFLT1_850_temp_270.txt.gz
Temp
-9 -9 -10 -10 -10 -11 -11 -12 -12 -12 -12 -13 -13 -13 -13 -12 -13 -13 -13 -12 -12 -13 -13 -13 -13 -13 -13 -14 -14 -14 -14 -14 -15 -15 -15 -16 -16 -16 -16 -17 -18 -18 -16 -14 -16 -16 -15 -15 -15 -14 -14 -14 -14 -14 -15 -15 -15 -16 -16 -15 -15 -15 -15
-9 -10 -10 -10 -10 -11 -12 -12 -12 -12 -13 -13 -13 -13 -13 -13 -13 -13 -13 -12 -12 -13 -13 -13 -13 -13 -13 -14 -14 -14 -14 -14 -15 -15 -15 -16 -16 -16 -16 -17 -17 -18 -17 -15 -15 -16 -15 -14 -15 -14 -14 -15 -15 -15 -15 -15 -15 -16 -16 -15 -16 -16 -15
-10 -10 -10 -10 -10 -11 -12 -12 -12 -13 -13 -13 -13 -13 -13 -13 -13 -13 -13 -12 -12 -13 -13 -13 -13 -13 -13 -14 -14 -13 -14 -14 -15 -16 -16 -16 -16 -16 -16 -17 -17 -18 -18 -17 -16 -16 -15 -15 -15 -14 -14 -15 -15 -15 -15 -15 -15 -16 -16 -16 -16 -16 -15
-10 -10 -10 -10 -11 -12 -12 -12 -13 -13 -13 -13 -14 -14 -13 -13 -13 -13 -13 -12 -12 -13 -13 -13 -12 -13 -13 -14 -14 -13 -14 -15 -15 -16 -16 -16 -16 -16 -16 -17 -17 -17 -18 -18 -17 -16 -15 -16 -15 -15 -15 -15 -15 -15 -16 -15 -16 -17 -17 -17 -17 -17 -16
-10 -10 -10 -11 -11 -12 -12 -13 -13 -13 -13 -14 -14 -14 -14 -13 -13 -13 -13 -12 -12 -13 -13 -13 -12 -13 -13 -13 -13 -14 -14 -15 -15 -16 -16 -16 -16 -16 -17 -17 -17 -17 -18 -18 -17 -16 -16 -16 -16 -15 -14 -15 -16 -17 -16 -16 -17 -18 -18 -18 -18 -18 -17
-11 -11 -11 -11 -12 -12 -12 -13 -13 -13 -14 -14 -14 -14 -14 -13 -13 -13 -13 -13 -13 -13 -13 -13 -13 -13 -13 -14 -14 -14 -15 -15 -16 -16 -16 -16 -16 -16 -17 -17 -17 -18 -18 -18 -18 -17 -17 -17 -16 -16 -15 -16 -18 -18 -18 -18 -19 -20 -20 -19 -19 -18 -17
-11 -11 -11 -12 -12 -12 -13 -13 -13 -13 -14 -14 -14 -14 -14 -14 -14 -13 -13 -13 -13 -13 -13 -13 -13 -13 -13 -14 -14 -15 -15 -15 -16 -16 -16 -16 -16 -17 -17 -17 -17 -18 -18 -18 -18 -18 -18 -17 -18 -17 -17 -17 -18 -20 -20 -20 -21 -21 -20 -20 -21 -19 -17
-11 -11 -12 -12 -12 -13 -13 -13 -13 -14 -14 -14 -14 -14 -14 -14 -14 -13 -13 -13 -13 -13 -13 -13 -13 -13 -14 -14 -14 -15 -15 -15 -16 -16 -16 -16 -16 -17 -17 -17 -18 -18 -19 -19 -20 -19 -19 -19 -19 -19 -18 -18 -19 -21 -22 -22 -22 -22 -21 -21 -22 -20 -17
-11 -12 -12 -12 -13 -13 -13 -13 -13 -14 -14 -14 -14 -14 -14 -14 -14 -14 -13 -13 -12 -13 -13 -13 -13 -14 -14 -14 -14 -14 -15 -15 -15 -16 -16 -16 -17 -17 -18 -18 -19 -19 -20 -21 -22 -21 -21 -22 -21 -20 -20 -20 -21 -22 -23 -23 -23 -23 -22 -22 -22 -20 -18
-11 -12 -12 -13 -13 -13 -13 -13 -13 -14 -14 -14 -14 -15 -14 -14 -14 -14 -14 -13 -13 -13 -13 -13 -13 -13 -14 -14 -14 -14 -14 -15 -15 -16 -16 -17 -18 -19 -19 -20 -21 -21 -22 -23 -24 -24 -23 -23 -22 -20 -20 -21 -21 -22 -23 -23 -24 -23 -23 -23 -23 -20 -18
-12 -12 -12 -13 -13 -13 -13 -13 -14 -14 -14 -15 -15 -15 -15 -14 -14 -14 -14 -13 -12 -12 -12 -13 -13 -13 -14 -14 -14 -14 -15 -15 -16 -16 -17 -18 -19 -20 -21 -22 -22 -22 -23 -24 -24 -23 -23 -22 -21 -20 -20 -20 -21 -22 -23 -24 -25 -25 -25 -26 -26 -23 -20
-12 -12 -13 -13 -13 -13 -13 -13 -14 -14 -15 -15 -15 -15 -16 -15 -15 -14 -13 -13 -13 -13 -13 -13 -13 -14 -14 -14 -14 -15 -16 -16 -17 -17 -18 -18 -19 -20 -20 -21 -21 -22 -22 -22 -22 -22 -21 -20 -20 -20 -20 -21 -22 -23 -24 -25 -25 -26 -26 -27 -27 -25 -22
-13 -13 -13 -13 -13 -13 -13 -13 -14 -15 -15 -15 -15 -16 -16 -16 -15 -15 -14 -13 -13 -13 -13 -14 -14 -14 -14 -14 -15 -16 -16 -17 -17 -17 -18 -18 -18 -19 -19 -19 -20 -20 -21 -22 -22 -22 -20 -19 -21 -21 -20 -21 -23 -25 -25 -26 -26 -27 -27 -27 -27 -25 -22
-13 -13 -13 -13 -13 -13 -13 -13 -14 -15 -15 -15 -15 -16 -16 -16 -16 -15 -14 -14 -14 -14 -14 -15 -15 -15 -15 -15 -15 -16 -16 -17 -17 -18 -18 -18 -18 -18 -18 -19 -19 -19 -20 -20 -21 -21 -20 -20 -21 -22 -21 -22 -24 -26 -26 -26 -27 -26 -26 -26 -25 -24 -22
-13 -13 -13 -13 -13 -13 -13 -13 -14 -15 -15 -15 -15 -16 -16 -16 -16 -15 -14 -14 -14 -14 -15 -15 -16 -16 -16 -16 -16 -16 -16 -17 -18 -18 -18 -18 -18 -18 -18 -18 -18 -18 -18 -18 -19 -19 -19 -19 -20 -21 -22 -23 -25 -26 -26 -27 -27 -25 -25 -25 -24 -23 -22
-13 -13 -13 -14 -14 -14 -13 -13 -14 -15 -15 -15 -15 -16 -16 -16 -15 -15 -14 -14 -14 -15 -15 -15 -16 -16 -16 -16 -16 -16 -17 -17 -18 -18 -18 -18 -18 -17 -17 -17 -17 -17 -18 -18 -18 -18 -18 -19 -21 -22 -23 -24 -25 -26 -26 -26 -25 -24 -24 -24 -23 -21 -21
-13 -13 -13 -14 -14 -14 -14 -13 -14 -15 -15 -15 -15 -16 -16 -15 -15 -15 -14 -14 -14 -15 -15 -15 -15 -15 -16 -15 -16 -16 -17 -18 -19 -19 -19 -18 -18 -18 -17 -16 -17 -18 -18 -18 -18 -18 -19 -20 -21 -22 -22 -22 -23 -24 -24 -24 -23 -22 -23 -24 -23 -21 -20
-13 -14 -14 -14 -14 -14 -14 -13 -14 -15 -15 -15 -15 -16 -16 -15 -15 -15 -14 -14 -14 -15 -15 -15 -15 -15 -15 -16 -16 -17 -17 -18 -19 -20 -19 -20 -20 -19 -17 -16 -17 -18 -17 -17 -16 -17 -17 -18 -18 -19 -19 -20 -20 -21 -22 -23 -22 -22 -23 -24 -24 -23 -22
-14 -14 -14 -14 -14 -14 -14 -14 -14 -15 -15 -15 -15 -16 -16 -16 -15 -15 -15 -15 -15 -15 -14 -14 -14 -15 -15 -16 -17 -17 -18 -19 -20 -20 -20 -21 -21 -19 -17 -17 -18 -17 -17 -16 -15 -16 -16 -17 -17 -18 -18 -19 -20 -21 -22 -23 -22 -23 -24 -25 -24 -25 -26
-14 -14 -14 -14 -14 -14 -14 -14 -14 -15 -15 -15 -15 -16 -16 -16 -16 -15 -15 -15 -15 -15 -14 -14 -14 -15 -15 -16 -17 -17 -18 -18 -20 -20 -21 -21 -21 -19 -18 -19 -19 -18 -17 -17 -16 -16 -16 -17 -17 -18 -18 -19 -20 -21 -22 -23 -23 -23 -24 -25 -25 -26 -28
-14 -14 -14 -14 -14 -14 -14 -14 -15 -15 -15 -16 -16 -16 -16 -16 -16 -16 -16 -16 -15 -15 -14 -14 -14 -15 -16 -16 -17 -17 -18 -18 -19 -20 -21 -21 -20 -20 -20 -20 -19 -18 -17 -17 -16 -17 -17 -17 -17 -17 -18 -19 -20 -21 -22 -22 -23 -23 -24 -25 -25 -26 -27
-14 -14 -14 -14 -14 -14 -14 -15 -15 -15 -15 -16 -16 -16 -16 -16 -16 -16 -16 -16 -15 -15 -14 -14 -15 -15 -16 -17 -17 -17 -17 -18 -19 -20 -20 -20 -20 -20 -20 -21 -20 -18 -17 -17 -16 -17 -16 -16 -17 -17 -18 -19 -19 -20 -21 -22 -23 -23 -24 -25 -25 -26 -27
-15 -15 -14 -14 -14 -14 -14 -15 -15 -15 -15 -15 -16 -16 -16 -16 -16 -16 -16 -16 -15 -15 -15 -15 -15 -16 -16 -17 -17 -17 -17 -18 -18 -18 -18 -18 -19 -19 -20 -20 -19 -18 -18 -17 -16 -16 -16 -16 -17 -18 -18 -18 -19 -20 -21 -22 -23 -24 -24 -25 -25 -25 -26
-15 -15 -15 -14 -14 -14 -15 -15 -15 -15 -15 -15 -15 -16 -16 -16 -16 -16 -16 -16 -16 -15 -15 -16 -16 -17 -17 -17 -17 -17 -17 -17 -17 -17 -18 -18 -19 -19 -19 -20 -19 -18 -18 -17 -17 -16 -16 -16 -17 -18 -18 -18 -19 -19 -20 -22 -23 -24 -25 -25 -25 -25 -26
-15 -15 -15 -15 -15 -14 -15 -15 -15 -15 -15 -15 -16 -16 -16 -15 -16 -16 -16 -16 -16 -16 -16 -17 -17 -17 -18 -17 -17 -17 -17 -17 -17 -17 -18 -18 -19 -19 -19 -19 -19 -18 -18 -17 -17 -17 -17 -17 -18 -18 -18 -18 -19 -19 -20 -22 -23 -24 -25 -25 -26 -26 -25
-16 -16 -16 -16 -15 -15 -15 -15 -15 -14 -15 -16 -16 -16 -15 -15 -16 -16 -16 -17 -16 -16 -17 -17 -17 -18 -18 -17 -17 -17 -17 -17 -17 -17 -18 -18 -19 -19 -19 -19 -19 -18 -18 -17 -17 -17 -17 -17 -18 -18 -18 -19 -19 -19 -20 -22 -24 -24 -25 -26 -27 -26 -25
-16 -16 -16 -16 -16 -15 -15 -15 -14 -15 -15 -16 -16 -16 -16 -16 -16 -16 -16 -16 -16 -17 -17 -18 -18 -18 -17 -17 -17 -17 -17 -17 -17 -17 -18 -18 -18 -19 -19 -19 -19 -19 -19 -18 -18 -18 -18 -18 -18 -18 -18 -19 -20 -19 -20 -22 -24 -25 -25 -26 -27 -27 -26
-17 -16 -16 -16 -16 -15 -15 -15 -15 -15 -16 -16 -16 -16 -16 -16 -16 -16 -16 -16 -17 -17 -18 -18 -17 -17 -16 -17 -17 -16 -17 -17 -17 -17 -18 -18 -18 -18 -18 -18 -19 -19 -19 -19 -19 -19 -19 -18 -19 -19 -19 -19 -20 -20 -20 -22 -24 -25 -25 -26 -27 -27 -27
-17 -16 -16 -17 -16 -16 -16 -15 -15 -15 -16 -16 -16 -16 -16 -16 -16 -17 -17 -17 -17 -18 -18 -17 -16 -16 -16 -16 -17 -17 -17 -17 -17 -17 -17 -17 -18 -18 -18 -18 -18 -18 -19 -19 -20 -20 -20 -19 -19 -19 -19 -20 -20 -20 -21 -22 -24 -25 -26 -27 -28 -28 -28
-17 -16 -17 -17 -16 -16 -16 -16 -16 -16 -16 -16 -16 -16 -16 -17 -17 -18 -18 -18 -19 -19 -18 -17 -16 -16 -17 -17 -17 -17 -17 -17 -17 -17 -17 -17 -17 -18 -18 -18 -18 -18 -19 -20 -20 -20 -20 -20 -20 -20 -20 -20 -20 -21 -22 -23 -24 -25 -26 -27 -28 -28 -28
-17 -17 -17 -17 -16 -16 -16 -16 -16 -16 -16 -16 -16 -16 -17 -17 -18 -18 -18 -19 -20 -19 -18 -17 -17 -17 -17 -18 -18 -18 -18 -18 -18 -17 -17 -17 -17 -17 -18 -18 -18 -19 -19 -20 -20 -20 -20 -20 -21 -21 -21 -21 -21 -21 -22 -23 -24 -26 -27 -28 -29 -29 -29
-17 -17 -17 -17 -17 -17 -16 -16 -16 -16 -16 -16 -17 -17 -17 -17 -18 -18 -19 -20 -20 -19 -17 -17 -18 -17 -17 -18 -18 -18 -18 -18 -18 -18 -18 -18 -17 -17 -18 -18 -19 -19 -20 -20 -20 -20 -20 -21 -21 -22 -22 -22 -22 -22 -23 -24 -25 -27 -28 -29 -29 -29 -29
-17 -17 -17 -17 -17 -17 -17 -17 -17 -17 -17 -17 -17 -17 -17 -17 -18 -19 -19 -20 -20 -19 -18 -18 -18 -18 -18 -18 -19 -18 -19 -18 -18 -18 -18 -18 -18 -18 -18 -18 -19 -20 -20 -20 -20 -21 -21 -21 -22 -22 -23 -23 -23 -23 -24 -25 -26 -27 -29 -29 -30 -30 -30
-17 -17 -17 -16 -16 -16 -17 -17 -17 -17 -17 -17 -17 -17 -17 -18 -18 -19 -19 -19 -19 -18 -18 -18 -18 -18 -18 -19 -19 -19 -19 -18 -18 -18 -18 -18 -18 -18 -18 -18 -19 -19 -20 -20 -20 -21 -21 -21 -22 -23 -24 -24 -24 -24 -25 -26 -27 -28 -29 -30 -30 -30 -31
-15 -16 -16 -16 -16 -16 -17 -17 -17 -17 -17 -17 -17 -17 -18 -19 -18 -18 -18 -19 -19 -18 -18 -18 -18 -18 -18 -19 -19 -19 -19 -19 -18 -18 -18 -18 -18 -19 -18 -19 -19 -20 -20 -21 -21 -21 -21 -22 -23 -24 -24 -25 -25 -26 -26 -26 -28 -29 -30 -30 -30 -31 -31
-15 -15 -16 -16 -16 -17 -17 -17 -17 -17 -17 -17 -17 -18 -19 -19 -18 -18 -18 -18 -18 -18 -18 -18 -18 -18 -18 -19 -19 -19 -19 -19 -19 -18 -18 -19 -19 -19 -19 -19 -20 -20 -21 -21 -22 -22 -23 -23 -24 -25 -26 -26 -27 -27 -27 -28 -29 -29 -30 -30 -31 -31 -31

ECMWFFLT1_850_temp_276.txt.gz
Temp
-6 -6 -6 -6 -7 -7 -7 -8 -8 -8 -9 -9 -9 -9 -9 -9 -9 -10 -10 -10 -11 -11 -11 -11 -11 -12 -12 -13 -13 -13 -13 -13 -13 -14 -14 -14 -14 -14 -14 -15 -15 -15 -14 -12 -13 -13 -12 -12 -11 -11 -11 -11 -11 -11 -12 -12 -12 -12 -12 -12 -11 -11 -11
-6 -6 -6 -7 -7 -7 -8 -8 -9 -9 -9 -9 -9 -10 -10 -10 -10 -10 -10 -10 -11 -11 -11 -11 -11 -12 -12 -13 -13 -13 -13 -13 -14 -14 -14 -14 -14 -14 -14 -15 -15 -15 -14 -13 -12 -12 -12 -12 -12 -12 -11 -12 -12 -12 -12 -12 -12 -12 -12 -12 -11 -11 -11
-6 -6 -7 -7 -7 -7 -8 -9 -9 -9 -9 -9 -10 -10 -10 -10 -10 -10 -10 -11 -11 -11 -11 -11 -11 -12 -13 -13 -13 -13 -13 -13 -14 -14 -14 -14 -14 -14 -14 -15 -15 -15 -15 -14 -13 -12 -12 -12 -12 -12 -12 -12 -12 -12 -12 -12 -12 -12 -12 -12 -11 -11 -11
-7 -7 -7 -7 -7 -8 -8 -9 -9 -9 -9 -10 -10 -10 -10 -10 -10 -11 -11 -11 -11 -11 -11 -11 -12 -12 -13 -13 -13 -13 -13 -14 -14 -14 -14 -14 -14 -14 -14 -15 -15 -14 -14 -14 -13 -12 -13 -13 -13 -13 -13 -13 -13 -13 -12 -12 -13 -13 -12 -12 -11 -11 -11
-7 -7 -7 -7 -8 -8 -9 -9 -9 -9 -9 -10 -10 -10 -10 -10 -11 -11 -11 -11 -11 -11 -11 -11 -12 -12 -13 -13 -13 -13 -13 -14 -14 -14 -14 -14 -14 -14 -14 -14 -14 -14 -14 -14 -13 -13 -13 -13 -13 -13 -13 -13 -13 -13 -12 -13 -13 -13 -12 -12 -11 -11 -11
-8 -8 -8 -8 -8 -9 -9 -9 -9 -9 -10 -10 -11 -11 -11 -11 -11 -11 -11 -11 -11 -11 -11 -12 -12 -12 -13 -13 -13 -13 -13 -13 -14 -14 -14 -14 -14 -14 -14 -14 -14 -14 -14 -14 -14 -14 -13 -14 -14 -14 -13 -13 -13 -13 -13 -13 -13 -13 -13 -12 -11 -11 -11
-8 -8 -8 -8 -9 -9 -9 -9 -9 -9 -10 -11 -11 -11 -11 -11 -11 -11 -11 -11 -11 -11 -12 -12 -12 -12 -13 -13 -13 -13 -13 -13 -14 -14 -14 -14 -14 -14 -14 -14 -14 -15 -15 -15 -14 -14 -14 -14 -14 -14 -13 -13 -13 -13 -14 -14 -14 -13 -13 -13 -12 -11 -11
-9 -9 -9 -9 -9 -9 -9 -9 -9 -10 -10 -11 -11 -11 -11 -11 -12 -12 -11 -11 -11 -12 -12 -12 -12 -12 -13 -13 -13 -13 -13 -14 -14 -14 -14 -14 -14 -15 -15 -15 -15 -15 -15 -15 -14 -14 -14 -14 -14 -13 -13 -13 -13 -14 -14 -15 -16 -16 -14 -13 -12 -11 -12
-9 -9 -9 -9 -9 -9 -9 -9 -10 -10 -11 -11 -11 -12 -12 -12 -12 -12 -12 -12 -12 -12 -12 -13 -13 -13 -13 -13 -13 -13 -14 -14 -14 -14 -14 -14 -15 -15 -15 -15 -15 -15 -15 -15 -14 -14 -14 -14 -14 -13 -13 -14 -14 -15 -15 -16 -17 -17 -17 -15 -13 -12 -12
-9 -9 -9 -9 -9 -10 -10 -10 -10 -11 -11 -12 -12 -12 -12 -12 -13 -12 -12 -12 -12 -12 -13 -13 -13 -13 -13 -13 -13 -14 -14 -14 -15 -15 -14 -15 -15 -15 -15 -15 -14 -14 -14 -14 -14 -14 -15 -15 -14 -14 -14 -15 -15 -16 -16 -17 -18 -18 -17 -17 -15 -12 -12
-9 -9 -9 -10 -10 -10 -10 -10 -11 -11 -12 -12 -12 -12 -13 -13 -13 -13 -13 -13 -12 -13 -13 -13 -13 -13 -13 -13 -13 -14 -14 -14 -14 -14 -14 -14 -14 -14 -14 -14 -14 -14 -14 -15 -15 -15 -16 -16 -15 -14 -15 -16 -16 -17 -17 -18 -19 -19 -18 -18 -17 -14 -13
-10 -10 -10 -10 -10 -10 -10 -10 -11 -12 -12 -12 -13 -13 -13 -13 -13 -13 -13 -13 -13 -13 -13 -13 -13 -13 -13 -13 -13 -13 -13 -14 -14 -14 -14 -14 -14 -14 -14 -14 -14 -14 -14 -15 -16 -16 -17 -17 -16 -16 -16 -16 -17 -18 -19 -19 -19 -20 -20 -20 -19 -16 -13
-10 -10 -10 -10 -10 -10 -10 -11 -11 -12 -12 -13 -13 -14 -14 -14 -13 -13 -13 -13 -13 -13 -13 -13 -13 -13 -13 -13 -13 -13 -13 -14 -14 -14 -14 -14 -14 -14 -15 -15 -15 -15 -16 -17 -17 -17 -18 -17 -17 -17 -17 -17 -18 -19 -20 -20 -20 -21 -21 -21 -20 -17 -14
-10 -11 -11 -11 -11 -11 -11 -11 -11 -12 -12 -13 -13 -14 -15 -15 -14 -14 -13 -13 -13 -13 -14 -14 -13 -13 -13 -13 -13 -13 -14 -14 -15 -15 -15 -15 -15 -15 -15 -16 -16 -16 -16 -17 -18 -18 -18 -18 -18 -18 -18 -18 -19 -20 -21 -22 -22 -22 -22 -21 -20 -18 -15
-11 -11 -11 -11 -11 -11 -11 -11 -11 -12 -12 -13 -14 -14 -15 -15 -15 -14 -14 -14 -14 -14 -14 -14 -14 -14 -14 -14 -14 -14 -14 -15 -16 -16 -16 -15 -15 -15 -15 -16 -15 -16 -16 -17 -17 -18 -18 -18 -19 -19 -19 -19 -19 -21 -22 -23 -24 -24 -23 -22 -21 -19 -16
-11 -11 -11 -11 -11 -11 -11 -11 -12 -12 -13 -13 -14 -15 -15 -15 -15 -15 -15 -14 -14 -14 -14 -14 -14 -14 -14 -14 -14 -14 -15 -16 -16 -16 -16 -16 -15 -15 -15 -15 -15 -15 -16 -16 -17 -18 -18 -18 -19 -19 -20 -20 -21 -23 -24 -24 -25 -24 -23 -23 -22 -20 -17
-12 -12 -11 -11 -11 -11 -11 -12 -12 -12 -13 -14 -14 -15 -15 -15 -15 -15 -15 -15 -15 -15 -14 -14 -14 -15 -15 -15 -14 -15 -15 -16 -16 -16 -16 -16 -15 -15 -15 -15 -15 -15 -16 -16 -17 -18 -18 -19 -20 -21 -22 -23 -23 -24 -25 -25 -25 -24 -23 -24 -23 -21 -19
-12 -12 -12 -11 -11 -12 -12 -12 -12 -13 -13 -14 -15 -15 -16 -15 -15 -15 -15 -15 -15 -15 -15 -14 -14 -15 -15 -15 -15 -15 -15 -16 -16 -16 -16 -16 -16 -16 -15 -15 -15 -16 -16 -16 -17 -17 -18 -19 -19 -21 -22 -22 -21 -22 -24 -24 -25 -24 -24 -24 -23 -22 -21
-12 -12 -12 -12 -12 -12 -12 -12 -13 -13 -14 -14 -15 -16 -16 -16 -16 -15 -15 -15 -15 -15 -15 -14 -14 -15 -15 -15 -15 -16 -16 -16 -16 -16 -16 -16 -16 -16 -15 -15 -16 -17 -16 -16 -16 -16 -17 -17 -18 -18 -19 -19 -20 -21 -22 -23 -24 -24 -24 -24 -23 -23 -22
-13 -12 -12 -12 -12 -13 -13 -13 -13 -14 -14 -15 -15 -16 -16 -16 -16 -15 -15 -15 -15 -15 -15 -14 -14 -15 -15 -15 -16 -16 -16 -16 -16 -16 -16 -17 -17 -16 -16 -17 -18 -17 -17 -17 -17 -17 -17 -17 -17 -17 -18 -18 -18 -19 -20 -21 -22 -23 -24 -24 -24 -23 -23
-13 -13 -12 -13 -13 -13 -13 -13 -14 -14 -14 -15 -15 -15 -16 -16 -16 -16 -16 -16 -16 -15 -15 -14 -14 -14 -15 -15 -16 -16 -16 -16 -16 -17 -17 -17 -17 -17 -18 -19 -19 -18 -17 -17 -17 -17 -17 -17 -17 -17 -17 -17 -17 -17 -18 -19 -20 -21 -22 -22 -22 -22 -22
-13 -13 -13 -13 -13 -13 -13 -14 -14 -14 -15 -15 -15 -15 -16 -16 -16 -16 -16 -16 -16 -16 -15 -15 -15 -15 -15 -15 -16 -16 -16 -16 -16 -17 -17 -17 -17 -18 -19 -20 -20 -20 -20 -19 -19 -19 -18 -17 -17 -17 -17 -17 -17 -17 -18 -19 -19 -20 -21 -21 -20 -20 -20
-13 -13 -13 -13 -13 -13 -14 -14 -14 -15 -15 -15 -15 -16 -16 -16 -16 -16 -16 -16 -16 -16 -16 -15 -15 -15 -15 -16 -16 -16 -16 -16 -16 -16 -16 -17 -17 -18 -19 -19 -20 -21 -21 -20 -20 -19 -18 -17 -17 -17 -17 -17 -17 -18 -18 -18 -19 -19 -20 -20 -20 -20 -21
-13 -14 -14 -14 -14 -14 -14 -14 -15 -15 -15 -15 -16 -16 -16 -16 -16 -17 -17 -17 -17 -16 -16 -16 -16 -16 -16 -16 -16 -16 -16 -16 -16 -16 -16 -17 -17 -18 -19 -19 -19 -20 -20 -20 -20 -18 -18 -17 -17 -17 -17 -17 -18 -18 -18 -18 -18 -18 -19 -20 -20 -20 -21
-14 -14 -14 -14 -14 -14 -14 -14 -14 -15 -15 -15 -16 -16 -16 -16 -17 -17 -17 -17 -17 -17 -16 -16 -16 -16 -16 -16 -16 -16 -16 -16 -16 -16 -17 -17 -18 -18 -19 -19 -20 -20 -21 -21 -20 -19 -18 -17 -17 -17 -18 -18 -18 -18 -18 -17 -18 -18 -19 -19 -20 -21 -21
-14 -15 -15 -15 -14 -14 -14 -14 -14 -14 -15 -15 -16 -16 -17 -17 -17 -17 -17 -17 -17 -17 -17 -16 -16 -16 -16 -16 -16 -16 -16 -16 -16 -16 -17 -17 -18 -19 -19 -20 -20 -21 -21 -21 -20 -19 -19 -18 -18 -18 -18 -18 -18 -18 -18 -18 -18 -18 -19 -19 -20 -21 -21
-15 -15 -15 -15 -15 -15 -15 -15 -14 -14 -15 -15 -16 -16 -17 -17 -17 -17 -17 -17 -17 -17 -17 -17 -16 -16 -16 -16 -16 -16 -16 -16 -17 -17 -17 -18 -18 -19 -19 -20 -20 -21 -21 -21 -20 -20 -19 -19 -19 -19 -18 -18 -18 -18 -18 -18 -19 -19 -19 -19 -20 -21 -21
-16 -16 -15 -15 -16 -16 -15 -15 -15 -15 -15 -16 -16 -16 -17 -17 -17 -17 -17 -17 -17 -17 -17 -17 -16 -16 -16 -16 -16 -16 -16 -16 -17 -17 -18 -18 -19 -19 -19 -20 -21 -21 -21 -21 -21 -20 -20 -19 -19 -19 -19 -19 -19 -19 -18 -19 -20 -20 -20 -21 -21 -22 -21
-16 -16 -16 -16 -16 -16 -16 -15 -15 -15 -16 -16 -16 -16 -17 -17 -17 -17 -17 -17 -17 -17 -17 -16 -16 -16 -16 -15 -15 -16 -16 -16 -17 -17 -18 -18 -18 -19 -19 -20 -21 -21 -21 -21 -21 -21 -20 -20 -19 -19 -19 -19 -19 -19 -19 -20 -20 -21 -21 -22 -22 -22 -22
-16 -16 -16 -16 -16 -16 -16 -16 -16 -16 -16 -16 -17 -17 -17 -17 -17 -17 -17 -17 -17 -17 -17 -16 -16 -15 -15 -15 -16 -16 -16 -17 -17 -17 -18 -18 -18 -19 -19 -19 -20 -20 -20 -20 -20 -20 -20 -20 -20 -20 -20 -20 -20 -20 -20 -21 -21 -21 -22 -22 -23 -23 -23
-17 -17 -17 -17 -17 -17 -17 -17 -17 -17 -17 -17 -17 -17 -17 -18 -18 -18 -18 -18 -18 -17 -17 -16 -16 -16 -16 -16 -16 -17 -17 -17 -18 -18 -18 -18 -18 -18 -19 -19 -19 -20 -20 -20 -20 -20 -20 -20 -20 -20 -21 -21 -21 -21 -21 -21 -21 -22 -22 -23 -23 -23 -23
-17 -17 -17 -18 -18 -18 -18 -17 -18 -18 -17 -17 -17 -18 -18 -18 -18 -18 -18 -18 -18 -17 -17 -16 -16 -16 -16 -17 -17 -17 -18 -18 -18 -18 -18 -19 -19 -18 -19 -19 -19 -20 -20 -20 -19 -20 -20 -20 -21 -21 -21 -21 -21 -21 -22 -22 -22 -22 -23 -23 -24 -24 -24
-18 -18 -18 -18 -18 -18 -18 -18 -18 -18 -18 -18 -18 -18 -18 -18 -18 -18 -18 -18 -18 -17 -17 -16 -17 -16 -17 -17 -17 -18 -19 -19 -19 -19 -19 -19 -19 -19 -19 -19 -20 -20 -20 -19 -19 -20 -20 -21 -21 -21 -22 -22 -22 -22 -23 -23 -23 -23 -24 -24 -25 -25 -25
-18 -18 -19 -19 -19 -19 -19 -19 -19 -19 -19 -19 -18 -18 -18 -18 -18 -18 -18 -17 -17 -17 -17 -17 -17 -17 -17 -18 -18 -19 -19 -19 -19 -19 -19 -19 -19 -20 -19 -20 -20 -20 -20 -20 -20 -21 -21 -21 -22 -22 -23 -23 -23 -24 -24 -24 -24 -25 -25 -26 -26 -26 -27
-18 -19 -19 -19 -19 -19 -19 -19 -20 -20 -19 -19 -19 -18 -18 -18 -18 -18 -17 -17 -17 -17 -17 -17 -17 -18 -18 -18 -19 -19 -19 -19 -19 -19 -20 -20 -20 -20 -20 -20 -20 -20 -20 -20 -21 -21 -22 -22 -23 -23 -24 -24 -25 -25 -25 -25 -25 -26 -27 -27 -28 -28 -29
-18 -18 -19 -19 -19 -19 -19 -19 -20 -20 -20 -19 -19 -19 -19 -19 -18 -18 -18 -17 -17 -17 -18 -18 -18 -18 -18 -19 -19 -19 -20 -20 -20 -20 -20 -20 -21 -21 -20 -20 -20 -20 -21 -21 -22 -22 -22 -23 -23 -24 -24 -25 -25 -26 -26 -26 -26 -27 -28 -28 -29 -30 -30